• In Schweiz
  • Länderverzeichnis
  • Für 7 Tage
  • Wassertemperatur
  • Satellitenkarten
  • Wetterkarte
  • Widgets
  • user-avatar
    Anmelden

    Stündliche Wetter Invercargill

    Heute, 23 Oktober, Dienstag

    Zeit Temperatur Niederschläge Wind Luftdruck Luftfeuchtigkeit
    00:00 +13°C° 0 mm 2 m/S 764 mmHg 76%
    01:00 +14°C° 0 mm 2 m/S 764 mmHg 69%
    02:00 +14°C° 0 mm 2 m/S 764 mmHg 63%
    03:00 +14°C° 0 mm 2 m/S 764 mmHg 64%
    04:00 +14°C° 0 mm 2 m/S 764 mmHg 65%
    05:00 +13°C° 0 mm 3 m/S 763 mmHg 66%
    06:00 +16°C° 0 mm 3 m/S 764 mmHg 62%
    07:00 +18°C° 0 mm 2 m/S 764 mmHg 58%
    08:00 +20°C° 0 mm 2 m/S 764 mmHg 54%
    09:00 +21°C° 0 mm 2 m/S 764 mmHg 51%
    10:00 +24°C° 0 mm 2 m/S 763 mmHg 48%
    11:00 +26°C° 0 mm 3 m/S 763 mmHg 46%
    12:00 +25°C° 0 mm 2 m/S 763 mmHg 48%
    13:00 +25°C° 0 mm 2 m/S 763 mmHg 50%
    14:00 +25°C° 0 mm 2 m/S 763 mmHg 52%
    15:00 +23°C° 0.1 mm 2 m/S 763 mmHg 60%
    16:00 +20°C° 0.1 mm 2 m/S 763 mmHg 69%
    17:00 +19°C° 0.1 mm 2 m/S 762 mmHg 77%
    18:00 +18°C° 0.1 mm 2 m/S 762 mmHg 82%
    19:00 +17°C° 0.1 mm 2 m/S 762 mmHg 86%
    20:00 +16°C° 0.1 mm 2 m/S 762 mmHg 90%
    21:00 +16°C° 0.1 mm 2 m/S 762 mmHg 91%
    22:00 +16°C° 0.1 mm 2 m/S 761 mmHg 91%
    23:00 +16°C° 0.1 mm 2 m/S 761 mmHg 91%

    Morgen, 24 Oktober, Mittwoch

    Zeit Temperatur Niederschläge Wind Luftdruck Luftfeuchtigkeit
    00:00 +16°C° 0.9 mm 2 m/S 760 mmHg 93%
    01:00 +15°C° 0.9 mm 2 m/S 759 mmHg 96%
    02:00 +15°C° 0.9 mm 2 m/S 759 mmHg 98%
    03:00 +16°C° 0.1 mm 3 m/S 758 mmHg 96%
    04:00 +16°C° 0.1 mm 3 m/S 758 mmHg 94%
    05:00 +16°C° 0.1 mm 3 m/S 757 mmHg 92%
    06:00 +18°C° 0.2 mm 3 m/S 757 mmHg 83%
    07:00 +19°C° 0.2 mm 3 m/S 757 mmHg 73%
    08:00 +21°C° 0.2 mm 4 m/S 756 mmHg 63%
    09:00 +21°C° 0.3 mm 4 m/S 756 mmHg 62%
    10:00 +21°C° 0.3 mm 4 m/S 756 mmHg 61%
    11:00 +21°C° 0.3 mm 4 m/S 755 mmHg 60%
    12:00 +21°C° 0.1 mm 4 m/S 755 mmHg 57%
    13:00 +21°C° 0.1 mm 4 m/S 755 mmHg 55%
    14:00 +21°C° 0.1 mm 5 m/S 754 mmHg 52%
    15:00 +19°C° 0.5 mm 5 m/S 755 mmHg 65%
    16:00 +15°C° 0.5 mm 5 m/S 755 mmHg 79%
    17:00 +13°C° 0.5 mm 5 m/S 755 mmHg 92%
    18:00 +11°C° 0.8 mm 4 m/S 756 mmHg 94%
    19:00 +10°C° 0.8 mm 4 m/S 757 mmHg 96%
    20:00 +8°C° 0.8 mm 4 m/S 757 mmHg 97%
    21:00 +7°C° 0.6 mm 4 m/S 757 mmHg 97%
    22:00 +8°C° 0.6 mm 3 m/S 757 mmHg 97%
    23:00 +8°C° 0.6 mm 3 m/S 758 mmHg 97%

    übermorgen, 25 Oktober, Donnerstag

    Zeit Temperatur Niederschläge Wind Luftdruck Luftfeuchtigkeit
    00:00 +8°C° 0.6 mm 3 m/S 758 mmHg 97%
    01:00 +8°C° 0.6 mm 3 m/S 758 mmHg 96%
    02:00 +7°C° 0.6 mm 4 m/S 758 mmHg 96%
    03:00 +7°C° 0.1 mm 4 m/S 758 mmHg 95%
    04:00 +7°C° 0.1 mm 4 m/S 759 mmHg 94%
    05:00 +6°C° 0.1 mm 4 m/S 759 mmHg 93%
    06:00 +7°C° 0.1 mm 4 m/S 760 mmHg 90%
    07:00 +7°C° 0.1 mm 4 m/S 760 mmHg 87%
    08:00 +7°C° 0.1 mm 4 m/S 761 mmHg 84%
    09:00 +7°C° 0.1 mm 4 m/S 761 mmHg 74%
    10:00 +8°C° 0.1 mm 4 m/S 762 mmHg 64%
    11:00 +10°C° 0.1 mm 3 m/S 762 mmHg 55%
    12:00 +10°C° 0 mm 3 m/S 762 mmHg 51%
    13:00 +10°C° 0 mm 3 m/S 762 mmHg 48%
    14:00 +11°C° 0 mm 3 m/S 762 mmHg 45%
    15:00 +10°C° 0 mm 3 m/S 762 mmHg 47%
    16:00 +10°C° 0 mm 3 m/S 762 mmHg 50%
    17:00 +10°C° 0 mm 2 m/S 762 mmHg 52%
    18:00 +8°C° 0 mm 2 m/S 762 mmHg 60%
    19:00 +6°C° 0 mm 2 m/S 763 mmHg 67%
    20:00 +6°C° 0 mm 1 m/S 763 mmHg 75%
    21:00 +5°C° 0 mm 1 m/S 763 mmHg 78%
    22:00 +5°C° 0 mm 1 m/S 763 mmHg 81%
    23:00 +4°C° 0 mm 1 m/S 762 mmHg 84%

    26 Oktober, Freitag

    Zeit Temperatur Niederschläge Wind Luftdruck Luftfeuchtigkeit
    00:00 +4°C° 0 mm 1 m/S 762 mmHg 86%
    01:00 +3°C° 0 mm 1 m/S 762 mmHg 88%
    02:00 +3°C° 0 mm 1 m/S 761 mmHg 90%
    03:00 +3°C° 0 mm 1 m/S 761 mmHg 89%
    04:00 +3°C° 0 mm 1 m/S 761 mmHg 88%
    05:00 +3°C° 0 mm 1 m/S 761 mmHg 87%
    06:00 +6°C° 0 mm 1 m/S 760 mmHg 75%
    07:00 +9°C° 0 mm 1 m/S 760 mmHg 63%
    08:00 +11°C° 0 mm 1 m/S 760 mmHg 51%
    09:00 +13°C° 0 mm 1 m/S 759 mmHg 46%
    10:00 +15°C° 0 mm 1 m/S 759 mmHg 41%
    11:00 +18°C° 0 mm 1 m/S 758 mmHg 36%
    12:00 +18°C° 0 mm 1 m/S 758 mmHg 37%
    13:00 +16°C° 0 mm 2 m/S 758 mmHg 38%
    14:00 +16°C° 0 mm 2 m/S 757 mmHg 39%
    15:00 +15°C° 0 mm 2 m/S 757 mmHg 43%
    16:00 +14°C° 0 mm 2 m/S 757 mmHg 47%
    17:00 +13°C° 0 mm 2 m/S 757 mmHg 52%
    18:00 +11°C° 0 mm 1 m/S 757 mmHg 61%
    19:00 +10°C° 0 mm 1 m/S 757 mmHg 70%
    20:00 +8°C° 0 mm 1 m/S 757 mmHg 78%
    21:00 +8°C° 0.1 mm 1 m/S 757 mmHg 82%
    22:00 +8°C° 0.1 mm 1 m/S 757 mmHg 86%
    23:00 +7°C° 0.1 mm 1 m/S 756 mmHg 90%

    27 Oktober, Samstag

    Zeit Temperatur Niederschläge Wind Luftdruck Luftfeuchtigkeit
    00:00 +7°C° 0 mm 1 m/S 756 mmHg 92%
    01:00 +6°C° 0 mm 1 m/S 755 mmHg 94%
    02:00 +6°C° 0 mm 1 m/S 755 mmHg 95%
    03:00 +6°C° 0 mm 1 m/S 755 mmHg 95%
    04:00 +6°C° 0 mm 1 m/S 755 mmHg 96%
    05:00 +5°C° 0 mm 1 m/S 754 mmHg 96%
    06:00 +8°C° 0 mm 1 m/S 754 mmHg 86%
    07:00 +11°C° 0 mm 1 m/S 754 mmHg 76%
    08:00 +13°C° 0 mm 1 m/S 753 mmHg 66%
    09:00 +15°C° 0 mm 1 m/S 753 mmHg 58%
    10:00 +18°C° 0 mm 1 m/S 752 mmHg 50%
    11:00 +19°C° 0 mm 1 m/S 752 mmHg 42%
    12:00 +19°C° 0 mm 1 m/S 751 mmHg 45%
    13:00 +18°C° 0 mm 1 m/S 751 mmHg 48%
    14:00 +17°C° 0 mm 2 m/S 750 mmHg 51%
    15:00 +16°C° 0 mm 2 m/S 750 mmHg 55%
    16:00 +16°C° 0 mm 2 m/S 749 mmHg 59%
    17:00 +15°C° 0 mm 1 m/S 749 mmHg 62%
    18:00 +13°C° 0 mm 1 m/S 749 mmHg 71%
    19:00 +11°C° 0 mm 1 m/S 749 mmHg 80%
    20:00 +9°C° 0 mm 1 m/S 749 mmHg 89%
    21:00 +9°C° 0 mm 1 m/S 748 mmHg 91%
    22:00 +8°C° 0 mm 1 m/S 748 mmHg 92%
    23:00 +8°C° 0 mm 1 m/S 748 mmHg 94%

    28 Oktober, Sonntag

    Zeit Temperatur Niederschläge Wind Luftdruck Luftfeuchtigkeit
    00:00 +7°C° 0 mm 1 m/S 747 mmHg 93%
    01:00 +6°C° 0 mm 2 m/S 747 mmHg 93%
    02:00 +6°C° 0 mm 2 m/S 746 mmHg 92%
    03:00 +6°C° 0 mm 2 m/S 746 mmHg 93%
    04:00 +6°C° 0 mm 2 m/S 746 mmHg 93%
    05:00 +6°C° 0 mm 2 m/S 746 mmHg 93%
    06:00 +7°C° 0.1 mm 2 m/S 746 mmHg 90%
    07:00 +8°C° 0.1 mm 2 m/S 746 mmHg 87%
    08:00 +10°C° 0.1 mm 2 m/S 746 mmHg 85%
    09:00 +10°C° 0.3 mm 2 m/S 746 mmHg 84%
    10:00 +12°C° 0.3 mm 2 m/S 746 mmHg 84%
    11:00 +11°C° 0.3 mm 3 m/S 746 mmHg 84%
    12:00 +10°C° 0.8 mm 3 m/S 746 mmHg 88%
    13:00 +10°C° 0.8 mm 4 m/S 746 mmHg 92%
    14:00 +8°C° 0.8 mm 5 m/S 746 mmHg 96%
    15:00 +7°C° 0.6 mm 5 m/S 747 mmHg 95%
    16:00 +6°C° 0.6 mm 4 m/S 747 mmHg 94%
    17:00 +5°C° 0.6 mm 4 m/S 748 mmHg 93%
    18:00 +5°C° 0.1 mm 4 m/S 749 mmHg 91%
    19:00 +5°C° 0.1 mm 4 m/S 749 mmHg 88%
    20:00 +4°C° 0.1 mm 3 m/S 750 mmHg 85%
    21:00 +4°C° 0 mm 3 m/S 750 mmHg 84%
    22:00 +4°C° 0 mm 3 m/S 751 mmHg 84%
    23:00 +4°C° 0 mm 3 m/S 751 mmHg 84%

    29 Oktober, Montag

    Zeit Temperatur Niederschläge Wind Luftdruck Luftfeuchtigkeit
    00:00 +4°C° 0.1 mm 3 m/S 751 mmHg 85%
    01:00 +3°C° 0.1 mm 3 m/S 752 mmHg 87%
    02:00 +3°C° 0.1 mm 3 m/S 752 mmHg 88%
    03:00 +3°C° 0.1 mm 3 m/S 752 mmHg 89%
    04:00 +2°C° 0.1 mm 3 m/S 753 mmHg 89%
    05:00 +2°C° 0.1 mm 3 m/S 753 mmHg 90%
    06:00 +4°C° 0 mm 3 m/S 753 mmHg 81%
    07:00 +5°C° 0 mm 3 m/S 754 mmHg 73%
    08:00 +7°C° 0 mm 4 m/S 754 mmHg 64%
    09:00 +7°C° 0 mm 4 m/S 754 mmHg 60%
    10:00 +8°C° 0 mm 4 m/S 754 mmHg 56%
    11:00 +10°C° 0 mm 4 m/S 753 mmHg 51%
    12:00 +9°C° 0 mm 5 m/S 753 mmHg 50%
    13:00 +10°C° 0 mm 5 m/S 753 mmHg 49%
    14:00 +11°C° 0 mm 6 m/S 752 mmHg 48%
    15:00 +10°C° 0.2 mm 6 m/S 752 mmHg 54%
    16:00 +10°C° 0.2 mm 6 m/S 753 mmHg 60%
    17:00 +9°C° 0.2 mm 6 m/S 753 mmHg 66%
    18:00 +8°C° 0.3 mm 5 m/S 754 mmHg 74%
    19:00 +7°C° 0.3 mm 5 m/S 754 mmHg 83%
    20:00 +6°C° 0.3 mm 4 m/S 755 mmHg 91%
    21:00 +5°C° 0 mm 3 m/S 756 mmHg 91%
    22:00 +4°C° 0 mm 3 m/S 756 mmHg 91%
    23:00 +4°C° 0 mm 3 m/S 757 mmHg 91%
    Mehr zeigen